Retour au catalogue

IRIDIUM 149

ActifCommunicationsPO
NORAD 43250·PAYLOAD·🇺🇸 United States

Lancé Mar 30, 2018 depuis Vandenberg Space Force Base

Loading…

Prochains Passages (prochaines 24 heures)

TLE

FraisSource: CelesTrak SupGP

Époque: Sep 14, 2026, 10:07 UTC

1 43250C 18030B   26257.42187500  .00003475  00000+0  12426-2 0  2577
2 43250  86.3910 253.0380 0002435  90.8586  16.4665 14.34214821    13

Suivez IRIDIUM 149 en temps réel avec AllMySat

Download on the App Store